Details From OAIX - Bagram
To UTDK - Kulyab
Flight Number -
Tags Generated
Created
Modified
Stats Distance 185 nm / 342 km
Max Altitude 0 ft / 0 m
Waypoints 2
Social Downloads 3
Likes 0
Share VATSIM

Download

Looking for another format? Having issues loading an existing format? Contact us
Advertisement - Login to hide

Notes

Generated

Route

OAIX UTDK

ID Type Via Altitude Latitude Longitude Leg Dist Tot Dist Heading (true) Name
O OAIX APT - 0 ft / 0 m 34.93431˚ 69.25700˚ - 0 nm - -
O UTDK APT - 0 ft / 0 m 37.97500˚ 69.80167˚ 184 nm 184 nm 8° / 8° -

Altitude Profile

Advertisement - Login to hide

Weather


0- 5 10 15 20 25 30 35+ Temperature / ° C

Clouds and Precipitation
Forecast for 2018-05-24 18:00 UTC. Updated an hour ago

Ground ~20,000 ft ~40,000 ft Winds

OAIX

Details ICAO OAIX (BPM)
Name BAGRAM
Region Afghanistan
Timezone Asia/Kabul (UTC+4.5)
Stats Elevation 4,895 ft / 1,492 m (AMSL)
Location 34.946139° 69.264972°
Runways 1
Magnetic Variation 3.294° E

METAR

OAIX 241758Z 21005KT 9999 CLR 17/06 A2998 RMK AO2A SLP065 T01650060 10273 20165 51010 $

Decode

TAF

TAF OAIX 241500Z 2415/2521 32009KT 9999 SCT150 QNH3000INS BECMG 2507/2508 34010G15KT 9000 -SHRA VCTS SCT080CB QNH3003INS BECMG 2515/2516 33012KT 9999 NSW FEW150 QNH3001INS TX27/2511Z TN14/2500Z

Decode

Departure Runways

ID Width Length Bearing (true) Bearing (mag) Surface Threshold Offset Overrun Length
03 180 ft / 55 m 9,865 ft / 3,007 m 28.90° 25.61° Concrete 0 ft / 0 m 0 ft / 0 m
21 180 ft / 55 m 9,865 ft / 3,007 m 208.91° 205.62° Concrete 0 ft / 0 m 0 ft / 0 m

UTDK

Details ICAO UTDK (TJU)
Name KULYAB
Region Tajikistan, Turkmenistan and Uzbekistan
Timezone Asia/Dushanbe (UTC+5.0)
Stats Elevation 2,293 ft / 699 m (AMSL)
Location 37.988334° 69.806667°
Runways 1
Magnetic Variation 4.195° E

METAR

UTDK 241800Z 02006MPS 9999 NSC 20/13 Q1013 R01/09//70 RMK QFE703/0937

Decode

TAF

Not found

Destination Runways

ID Width Length Bearing (true) Bearing (mag) Surface Threshold Offset Overrun Length
01 137 ft / 42 m 10,147 ft / 3,093 m 16.46° 12.27° Asphalt 0 ft / 0 m 0 ft / 0 m
19 137 ft / 42 m 10,147 ft / 3,093 m 196.47° 192.28° Asphalt 0 ft / 0 m 0 ft / 0 m